Location: Newark
(35.2672°N, 80.7344°W)
Time: 01:36:50
(UTC+00:00)

Vanguard 2 Rocket - Pass Details

Date: 25 January 2020
Orbit: 553 x 3327 km, 32.9° (Epoch: 25 February)

Event Time Altitude Azimuth Distance (km) Brightness Sun altitude
Rises 11:40:43 0° 262° (W) 2,892 - -9.8°
Exits shadow 11:42:27 - 260° (W) 2,197 8.3 -9.4°
Reaches altitude 10° 11:42:39 10° 260° (W) 2,117 8.3 -9.4°
Maximum altitude 11:47:24 72° 176° (S) 932 7.0 -8.5°
Drops below altitude 10° 11:55:13 10° 93° (E) 3,424 11.4 -6.9°
Sets 11:59:09 0° 92° (E) 4,862 12.4 -6.2°
